Flag for Greece Weather past 2 weeks in Piraeus, Greece

Now
54 °F

Partly cloudy.


Feels Like: 54 °F
Forecast: 54 / 71 °F
Wind: No wind

Location: Elefsis Airport

Current Time: Mar 31, 2015 at 7:02:29 AM

Latest Report: Mar 31, 2015 at 6:20 AM


Visibility: N/A

Pressure: 29.74 "Hg

Humidity: 82%

Dew point: 48 °F

Location of PiraeusLocation

Historic Weather in Piraeus — Graph

°F

Piraeus temperature yesterday

Maximum temperature yesterday: 64 °F (at 12:50 PM)
Minimum temperature yesterday: 45 °F (at 7:20 AM)
Average temperature yesterday: 56 °F

Past Weeks' High & Low Weather Summary

 TemperatureHumidityPressure
High64 °F (Mar 27, 4:50 PM)100% (Mar 26, 7:20 PM)30.45 "Hg (Mar 26, 7:20 PM)
Low34 °F (Mar 21, 6:50 AM)25% (Mar 21, 1:20 PM)29.53 "Hg (Mar 28, 3:50 AM)
Average53 °F69%30.01 "Hg
* Reported Mar 16 4:20 AM — Mar 31 5:20 AM, Piraeus, Weather by CustomWeather, © 2015

Note: Actual official high and low records may vary slightly from our data, if they occured in-between our weather recording intervals... More about our weather records

Advertising

Piraeus weather history for previous 24 hours

 ConditionsComfort  
Time TempWeatherWind HumidityBarometerVisibility
5:20 AM
Tue, Mar 31
54 °FLight rain. Partly cloudy.7 mph82%29.74 "HgN/A
4:50 AM54 °FLight rain. Partly cloudy.6 mph82%29.74 "HgN/A
4:20 AM54 °FLight rain. Partly cloudy.6 mph82%29.74 "HgN/A
3:50 AM55 °FPartly cloudy.No wind77%29.74 "HgN/A
3:20 AM54 °FPartly cloudy.3 mph82%29.74 "HgN/A
2:50 AM54 °FLight rain. Partly cloudy.3 mph82%29.74 "HgN/A
2:20 AM55 °FLight rain. Partly cloudy.5 mph77%29.74 "HgN/A
1:50 AM55 °FLight rain. Partly cloudy.3 mph77%29.74 "HgN/A
1:20 AM55 °FPassing clouds.3 mph72%29.74 "HgN/A
12:50 AM57 °FPassing clouds.No wind67%29.74 "HgN/A
11:50 PM
Mon, Mar 30
57 °FPassing clouds.No wind63%29.74 "HgN/A
11:20 PM57 °FPassing clouds.No wind67%29.74 "HgN/A
10:50 PM57 °FPartly cloudy.3 mph67%29.74 "HgN/A
10:20 PM57 °FPartly cloudy.3 mph67%29.74 "HgN/A
9:50 PM59 °FPartly cloudy.3 mph59%29.74 "HgN/A
9:20 PM59 °FPartly cloudy.3 mph59%29.74 "HgN/A
8:50 PM59 °FPartly cloudy.No wind55%29.74 "HgN/A
8:20 PM61 °FBroken clouds.3 mph52%29.74 "HgN/A
7:50 PM61 °FPartly sunny.3 mph52%29.74 "HgN/A
7:20 PM61 °FPartly sunny.7 mph52%29.74 "HgN/A
6:50 PM61 °FPartly sunny.6 mph59%29.74 "HgN/A
6:20 PM61 °FPartly sunny.7 mph59%29.74 "HgN/A
5:50 PM61 °FPartly sunny.8 mph63%29.74 "HgN/A
5:20 PM61 °FPassing clouds.9 mph63%29.74 "HgN/A
4:50 PM64 °FPassing clouds.12 mph49%29.74 "HgN/A
4:20 PM64 °FPassing clouds.14 mph43%29.77 "HgN/A
3:50 PM64 °FPassing clouds.14 mph43%29.77 "HgN/A
3:20 PM64 °FPassing clouds.12 mph46%29.80 "HgN/A
2:50 PM64 °FPassing clouds.12 mph49%29.80 "HgN/A
2:20 PM64 °FPassing clouds.14 mph43%29.83 "HgN/A
1:50 PM64 °FPassing clouds.14 mph40%29.83 "HgN/A
1:20 PM64 °FPassing clouds.16 mph32%29.83 "HgN/A
12:50 PM64 °FPassing clouds.13 mph32%29.83 "HgN/A
12:20 PM63 °FPassing clouds.12 mph39%29.86 "HgN/A
11:50 AM63 °FPassing clouds.8 mph42%29.86 "HgN/A
11:20 AM63 °FPassing clouds.9 mph45%29.86 "HgN/A
10:50 AM59 °FPassing clouds.No wind55%29.86 "HgN/A
10:20 AM61 °FPassing clouds.No wind63%29.86 "HgN/A
9:50 AM57 °FPassing clouds.No wind77%29.86 "HgN/A
9:20 AM57 °FPassing clouds.No wind77%29.86 "HgN/A
8:50 AM52 °FPassing clouds.No wind88%29.86 "HgN/A
8:20 AM50 °FPassing clouds.No wind94%29.86 "HgN/A
7:50 AM46 °FPassing clouds.No wind93%29.86 "HgN/A
7:20 AM45 °FPassing clouds.No wind93%29.86 "HgN/A
Weather by CustomWeather, © 2015

See weather overviewHow to use our weather pages